Tracking 30743 objects as of 21-Jun-2025
HD Live streaming from Space Station
objects crossing your sky now

GRBALPHA

Track GRBALPHA now!
10-day predictions
GRBALPHA is classified as:


NORAD ID: 47959
Int'l Code: 2021-022AD
Perigee: 174.2 km
Apogee: 188.7 km
Inclination: 97.4 °
Period: 88.0 minutes
Semi major axis: 6552 km
RCS: Unknown
Launch date: March 22, 2021
Source: (TBD)
Launch site: TYURATAM MISSILE AND SPACE COMPLEX (TTMTR)

Uplink (MHz): 145.905
Downlink (MHz): 437.025
Beacon (MHz): 437.025
Mode: 9k6GFSK Digipeater CW
Call sign: OM9GRB
Status: Active

Your satellite tracking list
Your tracking list is empty




NASA's NSSDC Master Catalog

Two Line Element Set (TLE):
1 47959U 21022AD  25160.45426279  .07940347  25506-5  90589-3 0  9995
2 47959  97.3899  75.6235 0011032 227.2558 132.7812 16.36806138232695
Source of the keplerian elements: AMSAT